Stations météo

réclame
Mon MeteoGroup
Drumnadrochit, Grande-Bretagne (99132): Température de l'air & dewpoint: 19.04.2019 05:00:00 - 25.04.2019 05:00:00 (BST)Drumnadrochit, Grande-Bretagne (99132): Quantités de précipitations: 19.04.2019 05:00:00 - 25.04.2019 05:00:00 (BST)
Date & Time tt [°C] td [°C] rr [mm]
25.04.2019 05:00:00 8,7 7,4 0,0
25.04.2019 04:00:00 9,2 7,2 0,0
25.04.2019 03:00:00 9,4 7,2 0,0
25.04.2019 02:00:00 9,3 7,2 0,0
25.04.2019 01:00:00 9,5 7,2 0,0
25.04.2019 00:00:00 - - -
24.04.2019 23:00:00 10,2 7,1 0,0
24.04.2019 22:00:00 10,2 7,1 0,0
24.04.2019 21:00:00 11,1 6,8 0,0
24.04.2019 20:00:00 11,7 6,9 0,0
24.04.2019 19:00:00 12,3 6,9 0,0
24.04.2019 18:00:00 13,3 7,1 0,0
24.04.2019 17:00:00 13,8 7,5 0,0
24.04.2019 16:00:00 12,9 7,4 0,0
24.04.2019 15:00:00 14,3 7,6 0,0
24.04.2019 14:00:00 15,8 7,6 0,0
24.04.2019 13:00:00 15,4 7,0 0,0
24.04.2019 12:00:00 14,9 6,6 0,0
24.04.2019 11:00:00 14,7 6,9 0,0
24.04.2019 10:00:00 - - 0,0
24.04.2019 09:00:00 10,1 6,1 0,0
24.04.2019 08:00:00 8,2 6,5 0,0
24.04.2019 07:00:00 4,0 3,7 0,0
24.04.2019 06:00:00 2,2 1,7 0,0
24.04.2019 05:00:00 2,4 1,7 0,0
24.04.2019 04:00:00 3,4 2,8 0,0
24.04.2019 03:00:00 3,1 1,9 0,0
24.04.2019 02:00:00 4,0 1,9 0,0
24.04.2019 01:00:00 6,0 3,2 0,0
24.04.2019 00:00:00 7,0 2,5 0,0
23.04.2019 23:00:00 10,7 3,2 0,0
23.04.2019 22:00:00 12,5 0,5 0,0
23.04.2019 21:00:00 13,0 2,3 0,0
23.04.2019 20:00:00 14,8 4,6 0,0
23.04.2019 19:00:00 16,5 4,3 0,0
23.04.2019 18:00:00 18,5 4,6 0,0
23.04.2019 17:00:00 18,4 5,3 0,0
23.04.2019 16:00:00 18,2 4,7 0,0
23.04.2019 15:00:00 18,2 4,9 0,0
23.04.2019 14:00:00 18,6 3,1 0,0
23.04.2019 13:00:00 18,2 6,2 0,0
23.04.2019 12:00:00 13,5 8,3 0,0
23.04.2019 11:00:00 11,5 6,8 0,0
23.04.2019 10:00:00 10,9 7,1 0,0
23.04.2019 09:00:00 10,1 6,9 0,0
23.04.2019 08:00:00 9,3 6,4 0,0
23.04.2019 07:00:00 8,3 5,7 0,0
23.04.2019 06:00:00 8,5 5,4 0,0
23.04.2019 05:00:00 9,0 5,7 0,0
23.04.2019 04:00:00 7,4 5,7 0,0
23.04.2019 03:00:00 7,1 5,1 0,0
23.04.2019 02:00:00 7,7 4,7 0,0
23.04.2019 01:00:00 8,8 4,6 0,0
23.04.2019 00:00:00 9,9 4,9 0,0
22.04.2019 23:00:00 15,2 3,1 0,0
22.04.2019 22:00:00 13,2 1,6 0,0
22.04.2019 21:00:00 11,9 2,0 0,0
22.04.2019 20:00:00 17,2 0,3 0,0
22.04.2019 19:00:00 19,1 2,1 0,0
22.04.2019 18:00:00 20,1 5,5 0,0
22.04.2019 17:00:00 21,5 4,7 0,0
22.04.2019 16:00:00 22,3 4,4 0,0
22.04.2019 15:00:00 21,0 4,8 0,0
22.04.2019 14:00:00 21,1 5,5 0,0
22.04.2019 13:00:00 20,9 4,5 0,0
22.04.2019 12:00:00 20,1 4,5 0,0
22.04.2019 11:00:00 19,0 5,4 0,0
22.04.2019 10:00:00 17,6 5,4 0,0
22.04.2019 09:00:00 16,6 5,0 0,0
22.04.2019 08:00:00 14,6 6,3 0,0
22.04.2019 07:00:00 7,6 5,9 0,0
22.04.2019 06:00:00 7,5 4,6 0,0
22.04.2019 05:00:00 10,0 6,0 0,0
22.04.2019 04:00:00 5,6 3,9 0,0
22.04.2019 03:00:00 7,9 6,8 0,0
22.04.2019 02:00:00 8,7 6,1 0,0
22.04.2019 01:00:00 11,8 9,1 0,0
22.04.2019 00:00:00 11,0 9,5 0,0
21.04.2019 23:00:00 9,6 7,6 0,0
21.04.2019 22:00:00 12,7 7,6 0,0
21.04.2019 21:00:00 16,6 7,7 0,0
21.04.2019 20:00:00 17,7 8,2 0,0
21.04.2019 19:00:00 18,7 9,1 0,0
21.04.2019 18:00:00 19,3 10,3 0,0
21.04.2019 17:00:00 20,7 10,0 0,0
21.04.2019 16:00:00 19,4 10,7 0,0
21.04.2019 15:00:00 19,8 9,9 0,0
21.04.2019 14:00:00 19,0 9,9 0,0
21.04.2019 13:00:00 19,7 10,8 0,0
21.04.2019 12:00:00 17,4 12,2 0,0
21.04.2019 11:00:00 15,2 11,1 0,0
21.04.2019 10:00:00 14,0 11,0 0,0
21.04.2019 09:00:00 13,2 11,6 0,0
21.04.2019 08:00:00 11,8 11,8 0,0
21.04.2019 07:00:00 10,3 10,3 0,0
21.04.2019 06:00:00 9,9 9,9 0,0
21.04.2019 05:00:00 9,5 9,5 0,2
21.04.2019 04:00:00 9,6 9,6 0,0
21.04.2019 03:00:00 9,8 9,7 0,0
21.04.2019 02:00:00 9,7 9,6 0,6
21.04.2019 01:00:00 10,0 9,9 0,0
21.04.2019 00:00:00 9,9 9,7 0,0
20.04.2019 23:00:00 10,0 9,9 0,0
20.04.2019 22:00:00 10,3 10,1 0,0
20.04.2019 21:00:00 10,7 10,2 0,0
20.04.2019 20:00:00 12,2 11,8 0,4
20.04.2019 19:00:00 12,8 11,6 1,0
20.04.2019 18:00:00 13,8 12,5 2,0
20.04.2019 17:00:00 15,2 11,8 0,6
20.04.2019 16:00:00 17,4 10,6 0,0
20.04.2019 15:00:00 18,1 9,4 0,0
20.04.2019 14:00:00 18,6 10,2 0,0
20.04.2019 13:00:00 18,5 9,8 0,0
20.04.2019 12:00:00 18,6 9,8 0,0
20.04.2019 11:00:00 17,4 9,0 0,0
20.04.2019 10:00:00 16,1 9,8 0,0
20.04.2019 09:00:00 14,1 8,6 0,0
20.04.2019 08:00:00 12,6 7,3 0,0
20.04.2019 07:00:00 12,4 6,3 0,0
20.04.2019 06:00:00 12,1 6,2 0,0
20.04.2019 05:00:00 12,9 5,7 0,0
20.04.2019 04:00:00 11,2 5,8 0,0
20.04.2019 03:00:00 11,3 5,9 0,0
20.04.2019 02:00:00 13,3 5,4 0,0
20.04.2019 01:00:00 13,7 5,4 0,0
20.04.2019 00:00:00 8,7 5,6 0,0
19.04.2019 23:00:00 9,5 5,7 0,0
19.04.2019 22:00:00 11,1 6,2 0,0
19.04.2019 21:00:00 14,1 5,9 0,0
19.04.2019 20:00:00 17,7 5,0 0,0
19.04.2019 19:00:00 19,1 5,1 0,0
19.04.2019 18:00:00 20,0 6,5 0,0
19.04.2019 17:00:00 20,4 7,3 0,0
19.04.2019 16:00:00 21,0 6,3 0,0
19.04.2019 15:00:00 21,0 5,5 0,0
19.04.2019 14:00:00 20,3 7,6 0,0
19.04.2019 13:00:00 18,8 6,0 0,0
19.04.2019 12:00:00 15,8 6,6 0,0
19.04.2019 11:00:00 13,6 3,8 0,0
19.04.2019 10:00:00 12,7 6,1 0,0
19.04.2019 09:00:00 8,9 4,8 0,0
19.04.2019 08:00:00 7,3 4,8 0,0
19.04.2019 07:00:00 4,7 3,1 0,0
19.04.2019 06:00:00 3,7 2,6 0,0
19.04.2019 05:00:00 3,4 1,8 0,0

tt = Température de l'air
td = dewpoint
rr = Quantités de précipitations

stations d'obs. à proximité